Tracking 22989 objects as of 8-May-2021
HD Live streaming from Space Station
objects crossing your sky now

THORAD AGENA D DEB

Track THORAD AGENA D DEB now!
10-day predictions


NORAD ID: 4741
Int'l Code: 1970-025CQ
Perigee: 1,074.7 km
Apogee: 2,353.4 km
Inclination: 100.3 °
Period: 120.6 minutes
Semi major axis: 8085 km
RCS: 0.0817 m2 (small)
Launch date: April 8, 1970
Source: United States (US)
Launch site: AIR FORCE WESTERN TEST RANGE (AFWTR)

Note: This is SATELLITE DEBRIS
aabbcc
Your satellite tracking list
Your tracking list is empty




NASA's NSSDC Master Catalog

Two Line Element Set (TLE):
1 04741U 70025CQ  21127.88998544 -.00000249  00000-0 -12126-2 0  9999
2 04741 100.2922 236.5779 0790784 103.3359   8.2594 11.94195916226387
Source of the keplerian elements: AFSPC